[[{"header":{"parameterUnit":"m.s-1","parameterCategory":2,"la1":30.2991,"la2":30.254,"lo1":-89.0895,"lo2":-89.0444,"dy":0.0017,"dx":0.0017,"nx":28,"ny":28,"refTime":"2024-04-06T21:00:00:Z","depth":"0","parameterNumber":2,"parameterNumberName":"U-component_of_CURRENTS"},"data":[0,0,0,0,0,0,0,0,0,0,0,0,0,0,0,0,0,0,0,0,0,0,0,0,0,0,0,0,0,0,0,0,0,0,0,0,0,0,0,0,0,0,0,0,0,0,0,0,0,0,0,0,0,0,0,0,0,0,-0.2739,-0.2739,0,-0.2728,-0.2727,-0.2726,-0.2768,-0.2771,-0.2773,-0.2774,-0.2787,-0.2786,-0.2784,0,0,0,0,0,0,0,0,0,0,0,0,0,-0.2535,-0.254,-0.2738,-0.2739,-0.274,-0.2728,-0.2727,-0.2726,-0.2768,-0.2771,-0.2773,-0.2775,-0.2788,-0.2786,-0.2784,0,0,0,0,0,0,0,0,0,0,0,0,0,-0.2577,-0.2541,-0.2738,-0.2765,-0.2768,-0.2728,-0.2727,-0.2726,-0.2768,-0.2771,-0.2774,-0.2776,-0.2788,-0.2786,-0.2784,-0.271,0,0,-0.2777,-0.2776,0,0,0,0,0,0,0,0,-0.2575,-0.2583,-0.2761,-0.2764,-0.2767,-0.276,-0.266,-0.2724,-0.2767,-0.2759,-0.2774,-0.2778,-0.2783,-0.2782,-0.2761,-0.271,-0.2711,-0.2777,-0.2775,-0.2774,-0.2774,0,0,0,0,0,0,0,-0.2572,-0.2582,-0.2726,-0.2761,-0.2765,-0.2689,-0.27,-0.2671,-0.2748,-0.276,-0.2765,-0.2776,-0.2784,-0.2763,-0.2762,-0.2711,-0.2777,-0.2775,-0.2773,-0.2772,-0.2575,-0.2572,0,0,0,0,0,0,-0.2601,-0.2582,-0.2726,-0.2726,-0.2685,-0.2692,-0.2704,-0.2752,-0.2749,-0.2753,-0.2774,-0.2778,-0.2765,-0.2764,-0.2762,-0.2667,-0.2774,-0.2772,-0.2771,-0.2579,-0.2575,-0.257,0,0,0,0,0,0,-0.2597,-0.2615,-0.2727,-0.2657,-0.2667,-0.2696,-0.2747,-0.2751,-0.2749,-0.276,-0.2764,-0.2773,-0.2768,-0.2766,-0.2716,-0.2669,-0.2771,-0.2769,-0.2584,-0.2578,-0.2573,-0.2481,0,0,0,0,0,0,-0.2592,-0.2615,-0.2635,-0.2661,-0.2673,-0.2666,-0.2746,-0.2749,-0.2754,-0.276,-0.2759,-0.2763,-0.277,-0.2719,-0.2713,-0.2668,-0.2767,-0.2589,-0.2581,-0.2574,-0.2489,-0.2473,-0.2459,0,0,0,0,0,-0.2585,-0.2566,-0.2637,-0.2653,-0.271,-0.2663,-0.2657,-0.2681,-0.2751,-0.2701,-0.272,-0.2764,-0.267,-0.2713,-0.2708,-0.2661,-0.2592,-0.2583,-0.2575,-0.2496,-0.2476,-0.2459,0,0,0,0,0,0,-0.2473,-0.2572,-0.2648,-0.2665,-0.2665,-0.2673,-0.2623,-0.268,-0.2655,-0.2664,-0.2714,-0.2712,-0.2639,-0.2655,-0.2703,-0.2577,-0.2638,-0.2627,-0.2579,-0.2561,-0.2546,-0.261,-0.2765,0,0,0,0,0,-0.2473,-0.249,-0.2565,-0.2566,-0.2569,-0.2612,-0.26,-0.2621,-0.2619,-0.2614,-0.2623,-0.262,-0.259,-0.2586,-0.2537,-0.2482,-0.2557,-0.2444,-0.2429,-0.2417,-0.246,-0.2506,-0.2502,-0.2542,-0.2542,-0.2542,0,0,-0.2428,-0.2482,-0.2494,-0.2542,-0.2547,-0.2534,-0.2606,-0.256,-0.2564,-0.2614,-0.2578,-0.255,-0.2554,-0.2473,-0.2446,-0.2495,-0.2437,-0.2406,-0.2396,-0.2448,-0.2497,-0.2495,-0.2492,-0.2536,-0.2537,-0.2538,0,0,-0.2312,-0.2398,-0.2372,-0.2382,-0.2398,-0.2427,-0.2428,-0.2437,-0.2449,-0.2408,-0.2444,-0.2406,-0.2357,-0.2356,-0.2358,-0.2236,-0.2337,-0.2202,-0.2208,-0.2249,-0.2249,-0.2249,-0.2329,-0.2337,-0.222,-0.222,-0.2219,0,-0.2257,-0.229,-0.2336,-0.2315,-0.2336,-0.2396,-0.2377,-0.2374,-0.2365,-0.2382,-0.2376,-0.2334,-0.2312,-0.2299,-0.2244,-0.2209,-0.227,-0.2282,-0.2238,-0.224,-0.2242,-0.2324,-0.2335,-0.2214,-0.2215,-0.2215,-0.2216,0,-0.2148,-0.2178,-0.2138,-0.2189,-0.2186,-0.2155,-0.221,-0.2196,-0.2237,-0.2264,-0.2228,-0.2192,-0.2205,-0.2151,-0.2165,-0.2158,-0.2205,-0.2198,-0.2303,-0.2234,-0.2322,-0.2336,-0.2206,-0.2208,-0.221,-0.2211,0,0,-0.2056,-0.2072,-0.2072,-0.2111,-0.214,-0.2138,-0.2129,-0.2165,-0.2228,-0.216,-0.2234,-0.2118,-0.2144,-0.2148,-0.2145,-0.2169,-0.2202,-0.2197,-0.2202,-0.2314,-0.2336,-0.2334,-0.235,-0.2196,-0.2198,-0.2199,-0.2389,0,-0.1983,-0.1948,-0.1979,-0.1977,-0.1989,-0.2056,-0.2079,-0.2111,-0.2148,-0.2208,-0.2191,-0.2211,-0.2137,-0.216,-0.2159,-0.2211,-0.2235,-0.2155,-0.2356,-0.2364,-0.2401,-0.2363,-0.2133,-0.228,-0.2403,-0.2405,-0.2407,0,-0.1912,-0.1918,-0.1892,-0.1978,-0.1992,-0.1992,-0.2108,-0.2121,-0.2203,-0.2247,-0.2261,-0.2287,-0.2311,-0.2259,-0.2323,-0.2283,-0.2304,-0.2326,-0.2333,-0.2391,-0.2387,-0.2366,-0.2301,-0.2262,-0.2428,-0.2427,-0.2425,0,-0.1882,-0.1887,-0.1884,-0.1901,-0.1969,-0.1987,-0.2028,-0.2112,-0.2172,-0.2279,-0.2364,-0.2386,-0.245,-0.2451,-0.2477,-0.2419,-0.2586,-0.2515,-0.2531,-0.2534,-0.2412,-0.24,-0.237,-0.2557,-0.2557,-0.2556,-0.2556,0,-0.1841,-0.1849,-0.1871,-0.1876,-0.1928,-0.197,-0.2043,-0.211,-0.2222,-0.2328,-0.2376,-0.2485,-0.2502,-0.2592,-0.2565,-0.2622,-0.2656,-0.2559,-0.2581,-0.2367,-0.235,-0.2373,-0.2387,-0.2563,-0.2562,-0.256,-0.2559,0,-0.1802,-0.1808,-0.1826,-0.1882,-0.1904,-0.1933,-0.2037,-0.2115,-0.2226,-0.238,-0.2424,-0.2592,-0.2707,-0.2738,-0.2812,-0.2765,-0.274,-0.28,-0.2573,-0.2563,-0.2491,-0.2508,-0.2588,-0.2525,-0.2841,-0.2842,-0.2843,0,-0.177,-0.1764,-0.1819,-0.1846,-0.1859,-0.1913,-0.1982,-0.2093,-0.2192,-0.2439,-0.2534,-0.2705,-0.2786,-0.2924,-0.2861,-0.2856,-0.281,-0.2711,-0.2521,-0.2487,-0.2522,-0.251,-0.2448,-0.2322,-0.2319,-0.2316,-0.2314,0,-0.1721,-0.1735,-0.1752,-0.1804,-0.1855,-0.1931,-0.2024,-0.21,-0.2277,-0.2415,-0.2603,-0.2668,-0.2797,-0.2701,-0.2742,-0.2693,-0.2595,-0.2655,-0.2648,-0.2155,-0.2112,-0.206,-0.2248,-0.2289,-0.2291,-0.2293,-0.2294,-0.2295,-0.1681,-0.1684,-0.1704,-0.1754,-0.1827,-0.1905,-0.1921,-0.2068,-0.2181,-0.2323,-0.2484,-0.2523,-0.2508,-0.2475,-0.2483,-0.2377,-0.2432,-0.2242,-0.2286,-0.2297,-0.2154,-0.233,-0.2373,-0.2376,-0.2378,-0.2381,-0.2383,0,-0.162,-0.1624,-0.1663,-0.1706,-0.1757,-0.1811,-0.1931,-0.1949,-0.2034,-0.2146,-0.2206,-0.2181,-0.2078,-0.212,-0.204,-0.1981,-0.1889,-0.1979,-0.184,-0.1809,-0.196,-0.1846,-0.1741,-0.1741,-0.1741,-0.1741,-0.1741,-0.1741,-0.1581,-0.1568,-0.1582,-0.1603,-0.1639,-0.1635,-0.1656,-0.1723,-0.1776,-0.1785,-0.178,-0.1806,-0.1845,-0.1939,-0.1847,-0.1772,-0.1729,-0.1667,-0.1804,-0.1823,-0.1847,-0.187,-0.1763,-0.1641,-0.1641,-0.1464,-0.1463,-0.1463]},{"header":{"parameterUnit":"m.s-1","parameterCategory":2,"la1":30.2991,"la2":30.254,"lo1":-89.0895,"lo2":-89.0444,"dy":0.0017,"dx":0.0017,"nx":28,"ny":28,"refTime":"2024-04-06T21:00:00:Z","depth":"0","parameterNumber":3,"parameterNumberName":"V-component_of_CURRENTS"},"data":[0,0,0,0,0,0,0,0,0,0,0,0,0,0,0,0,0,0,0,0,0,0,0,0,0,0,0,0,0,0,0,0,0,0,0,0,0,0,0,0,0,0,0,0,0,0,0,0,0,0,0,0,0,0,0,0,0,0,0.0018,0.002,0,0.0222,0.0224,0.0225,0.0249,0.0247,0.0246,0.0245,0.0297,0.0299,0.0302,0,0,0,0,0,0,0,0,0,0,0,0,0,-0.0174,-0.0173,0.0017,0.0021,0.0024,0.0222,0.0224,0.0226,0.0249,0.0247,0.0246,0.0244,0.0296,0.0299,0.0302,0,0,0,0,0,0,0,0,0,0,0,0,0,-0.005,-0.0172,0.0017,0.0065,0.0072,0.0221,0.0224,0.0226,0.0249,0.0247,0.0245,0.0243,0.0295,0.0299,0.0303,0.0368,0,0,0.0315,0.0317,0,0,0,0,0,0,0,0,-0.0057,-0.0044,0.0054,0.0062,0.007,0.0214,0.0176,0.0269,0.025,0.0174,0.0245,0.0242,0.0262,0.0268,0.0303,0.037,0.0373,0.0315,0.0318,0.0319,0.032,0,0,0,0,0,0,0,-0.0066,-0.0052,0.0091,0.0058,0.0068,0.0138,0.0151,0.0195,0.0218,0.018,0.0184,0.022,0.0263,0.0299,0.0304,0.0373,0.0315,0.0319,0.0321,0.0323,0.0438,0.0439,0,0,0,0,0,0,-0.0083,-0.0061,0.0084,0.0098,0.0008,0.0143,0.0157,0.0164,0.0221,0.0231,0.0221,0.022,0.0293,0.0299,0.0305,0.0336,0.0319,0.0323,0.0325,0.0437,0.0438,0.0439,0,0,0,0,0,0,-0.0089,-0.0073,0.0076,0.0031,0.0056,0.0148,0.0156,0.0169,0.0209,0.0255,0.026,0.0248,0.0292,0.03,0.034,0.0339,0.0325,0.0328,0.0436,0.0437,0.0438,0.0429,0,0,0,0,0,0,-0.0096,-0.0078,-0.009,0.0029,0.0058,0.0168,0.0159,0.0175,0.0237,0.0238,0.028,0.0283,0.0291,0.0334,0.0344,0.0345,0.0332,0.0436,0.0437,0.0438,0.0428,0.0429,0.043,0,0,0,0,0,-0.0104,-0.0093,-0.0093,-0.0075,0.0039,0.0171,0.0192,0.0246,0.0241,0.027,0.0286,0.0282,0.0348,0.0339,0.035,0.0352,0.0435,0.0436,0.0438,0.0428,0.0429,0.043,0,0,0,0,0,0,-0.018,-0.0085,-0.0084,-0.0049,0.0049,0.0177,0.0219,0.0256,0.03,0.0288,0.0308,0.0313,0.034,0.0359,0.0348,0.0388,0.0385,0.0389,0.0373,0.0375,0.0376,0.0378,0.0335,0,0,0,0,0,-0.0204,-0.0186,-0.0067,-0.0045,0.0011,0.0111,0.0166,0.0212,0.0279,0.0298,0.0326,0.0345,0.0361,0.0377,0.04,0.0442,0.0451,0.0445,0.0446,0.0447,0.0456,0.0445,0.0446,0.0444,0.0444,0.0444,0,0,-0.0233,-0.0175,-0.0169,-0.0061,0.0017,0.0105,0.0138,0.0236,0.0283,0.0296,0.0347,0.0356,0.0373,0.0401,0.0415,0.0415,0.0459,0.0449,0.0449,0.0458,0.0447,0.0447,0.0447,0.0445,0.0445,0.0444,0,0,-0.0239,-0.0216,-0.0185,-0.0097,0.0031,0.0102,0.0132,0.0262,0.029,0.0358,0.0353,0.0367,0.0422,0.0423,0.043,0.046,0.0461,0.0461,0.0474,0.0463,0.0462,0.0462,0.0499,0.0502,0.0464,0.0464,0.0464,0,-0.0276,-0.0226,-0.015,-0.007,-0.0006,0.0099,0.0169,0.0237,0.0348,0.0353,0.0367,0.0409,0.0429,0.0437,0.0447,0.046,0.0469,0.0464,0.0462,0.0462,0.0462,0.0499,0.0502,0.0464,0.0464,0.0464,0.0464,0,-0.0234,-0.0192,-0.0146,-0.0041,0.0035,0.0125,0.0235,0.0281,0.032,0.0367,0.039,0.0426,0.0437,0.0449,0.0466,0.047,0.0484,0.0458,0.0454,0.0461,0.0501,0.0504,0.0464,0.0464,0.0464,0.0464,0,0,-0.0289,-0.0156,-0.0137,-0.0105,0.0057,0.0122,0.0194,0.0276,0.0285,0.037,0.0375,0.0424,0.0429,0.0439,0.0452,0.0468,0.0492,0.0473,0.0472,0.0502,0.0502,0.0569,0.058,0.0455,0.0455,0.0455,0.0539,0,-0.0272,-0.0177,-0.0103,-0.0018,0.005,0.0138,0.0183,0.0252,0.0302,0.0333,0.0371,0.0384,0.043,0.042,0.0448,0.0474,0.0497,0.0474,0.0498,0.05,0.0551,0.0584,0.0555,0.0632,0.0543,0.0543,0.0544,0,-0.0224,-0.0177,-0.0109,-0.0039,-0.0004,0.0046,0.0099,0.0154,0.0218,0.0245,0.0279,0.0316,0.037,0.0388,0.0465,0.0446,0.048,0.0511,0.0513,0.0581,0.0573,0.0606,0.0642,0.0769,0.055,0.0549,0.0549,0,-0.0283,-0.0172,-0.0149,-0.0105,-0.0005,0.0001,0.0042,0.0108,0.0115,0.0181,0.0178,0.0261,0.0281,0.0347,0.046,0.0444,0.0547,0.0515,0.0614,0.062,0.0607,0.0612,0.0759,0.0548,0.0547,0.0547,0.0547,0,-0.0269,-0.0238,-0.0187,-0.0161,-0.0164,-0.0073,-0.008,-0.003,0.0006,-0.0012,0.0112,0.012,0.0265,0.0353,0.0447,0.0578,0.0534,0.064,0.0644,0.0609,0.0613,0.0731,0.0781,0.055,0.055,0.0549,0.0549,0,-0.0301,-0.026,-0.0234,-0.0187,-0.0182,-0.0186,-0.0165,-0.0188,-0.0125,-0.0145,-0.0135,0.0007,0.0149,0.0323,0.0453,0.055,0.0738,0.0708,0.0699,0.0702,0.0913,0.0961,0.1119,0.1179,0.0828,0.083,0.0832,0,-0.0303,-0.0296,-0.0284,-0.0306,-0.0286,-0.029,-0.0316,-0.0264,-0.029,-0.0226,-0.0255,-0.0097,0.0017,0.0316,0.0522,0.074,0.0822,0.0834,0.0797,0.0954,0.101,0.1042,0.1082,0.0784,0.0785,0.0786,0.0787,0,-0.0316,-0.0327,-0.0326,-0.0388,-0.0425,-0.0465,-0.0491,-0.0532,-0.0497,-0.0481,-0.0424,-0.0315,0.0008,0.0294,0.0627,0.0733,0.0925,0.0863,0.0995,0.0986,0.1055,0.1103,0.0739,0.0796,0.0795,0.0794,0.0794,0.0793,-0.0344,-0.037,-0.0407,-0.0467,-0.0536,-0.0638,-0.0687,-0.0713,-0.0745,-0.0717,-0.0578,-0.0394,0.006,0.0544,0.0707,0.1039,0.1008,0.1097,0.1146,0.1169,0.1226,0.093,0.1008,0.1008,0.1008,0.1008,0.1009,0,-0.0371,-0.042,-0.0489,-0.0583,-0.0708,-0.0708,-0.081,-0.0863,-0.091,-0.0805,-0.0698,-0.0237,0.0207,0.0642,0.1141,0.1307,0.1313,0.1392,0.1404,0.1431,0.1134,0.1132,0.1275,0.1275,0.1275,0.1275,0.1275,0.1274,-0.0388,-0.0465,-0.0516,-0.072,-0.0804,-0.0952,-0.1016,-0.1066,-0.1014,-0.0825,-0.0562,-0.0326,0.0308,0.1135,0.1589,0.1609,0.1741,0.1713,0.1828,0.1598,0.1573,0.1549,0.1561,0.1792,0.1792,0.2068,0.207,0.2073]}],[{"header":{"parameterUnit":"m.s-1","parameterCategory":2,"la1":30.2991,"la2":30.254,"lo1":-89.0895,"lo2":-89.0444,"dy":0.0017,"dx":0.0017,"nx":28,"ny":28,"refTime":"2024-04-06T21:00:00:Z","depth":"2","parameterNumber":2,"parameterNumberName":"U-component_of_CURRENTS"},"data":[0,0,0,0,0,0,0,0,0,0,0,0,0,0,0,0,0,0,0,0,0,0,0,0,0,0,0,0,0,0,0,0,0,0,0,0,0,0,0,0,0,0,0,0,0,0,0,0,0,0,0,0,0,0,0,0,0,0,-0.2395,-0.2395,0,-0.2342,-0.2341,-0.2341,-0.2355,-0.2356,-0.2357,-0.2358,-0.2371,-0.2371,-0.237,0,0,0,0,0,0,0,0,0,0,0,0,0,-0.232,-0.2322,-0.2395,-0.2395,-0.2394,-0.2342,-0.2341,-0.234,-0.2355,-0.2356,-0.2358,-0.2359,-0.2372,-0.2371,-0.237,0,0,0,0,0,0,0,0,0,0,0,0,0,-0.2318,-0.2323,-0.2395,-0.2395,-0.2395,-0.2342,-0.2341,-0.234,-0.2355,-0.2356,-0.2358,-0.236,-0.2372,-0.2371,-0.237,-0.233,0,0,-0.2367,-0.2366,0,0,0,0,0,0,0,0,-0.2318,-0.2321,-0.2396,-0.2395,-0.2395,-0.2357,-0.2319,-0.234,-0.2354,-0.2369,-0.2358,-0.236,-0.2372,-0.2371,-0.2355,-0.233,-0.2331,-0.2366,-0.2366,-0.2365,-0.2365,0,0,0,0,0,0,0,-0.2319,-0.2322,-0.2374,-0.2395,-0.2394,-0.2333,-0.2336,-0.2322,-0.2363,-0.2368,-0.2369,-0.2364,-0.2372,-0.2356,-0.2356,-0.2331,-0.2366,-0.2366,-0.2365,-0.2364,-0.2309,-0.2309,0,0,0,0,0,0,-0.2335,-0.2323,-0.2375,-0.2372,-0.236,-0.2334,-0.2337,-0.2367,-0.2361,-0.2362,-0.2362,-0.2364,-0.2357,-0.2357,-0.2357,-0.2395,-0.2365,-0.2364,-0.2364,-0.231,-0.2309,-0.2308,0,0,0,0,0,0,-0.2334,-0.2341,-0.2378,-0.2344,-0.2345,-0.2335,-0.2367,-0.2365,-0.2361,-0.2356,-0.2358,-0.2362,-0.2359,-0.2358,-0.2353,-0.2393,-0.2364,-0.2363,-0.2311,-0.231,-0.2309,-0.2416,0,0,0,0,0,0,-0.2333,-0.2342,-0.236,-0.2347,-0.2347,-0.239,-0.2365,-0.2363,-0.2355,-0.2357,-0.2356,-0.2358,-0.236,-0.2355,-0.2352,-0.2391,-0.2362,-0.2312,-0.2311,-0.2309,-0.2414,-0.2419,-0.2423,0,0,0,0,0,-0.2331,-0.2332,-0.2362,-0.2367,-0.2377,-0.2391,-0.2387,-0.2381,-0.2353,-0.2377,-0.235,-0.2359,-0.2343,-0.2353,-0.2351,-0.239,-0.2313,-0.2311,-0.2309,-0.2412,-0.2418,-0.2423,0,0,0,0,0,0,-0.2298,-0.2334,-0.2366,-0.238,-0.2414,-0.2395,-0.2389,-0.238,-0.237,-0.2362,-0.2347,-0.2348,-0.2369,-0.2338,-0.2349,-0.236,-0.2329,-0.2327,-0.2408,-0.2413,-0.2418,-0.241,-0.2361,0,0,0,0,0,-0.2306,-0.232,-0.2366,-0.2376,-0.2401,-0.2397,-0.2391,-0.2399,-0.2386,-0.2383,-0.2379,-0.2356,-0.2351,-0.2351,-0.2348,-0.2342,-0.2311,-0.2358,-0.2363,-0.2368,-0.2354,-0.2307,-0.2307,-0.2302,-0.2302,-0.2302,0,0,-0.229,-0.2309,-0.2317,-0.237,-0.2385,-0.2428,-0.2399,-0.2408,-0.2434,-0.2384,-0.2402,-0.2383,-0.2352,-0.2369,-0.2372,-0.2352,-0.2364,-0.2366,-0.2371,-0.2353,-0.2305,-0.2306,-0.2307,-0.2301,-0.2301,-0.2301,0,0,-0.2282,-0.2303,-0.2341,-0.2367,-0.241,-0.2423,-0.2435,-0.245,-0.2461,-0.247,-0.2442,-0.2433,-0.2421,-0.2415,-0.2404,-0.2416,-0.2398,-0.2415,-0.2432,-0.2389,-0.239,-0.239,-0.2409,-0.241,-0.2409,-0.2409,-0.2409,0,-0.2281,-0.2328,-0.2349,-0.2395,-0.2405,-0.2432,-0.2478,-0.2495,-0.25,-0.2491,-0.2498,-0.2442,-0.2447,-0.2428,-0.2448,-0.2436,-0.2411,-0.2429,-0.2399,-0.2398,-0.2396,-0.2415,-0.2414,-0.2414,-0.2414,-0.2413,-0.2413,0,-0.232,-0.2354,-0.2365,-0.245,-0.2473,-0.2497,-0.2548,-0.2569,-0.257,-0.2568,-0.2559,-0.254,-0.249,-0.2511,-0.2494,-0.2476,-0.2468,-0.2426,-0.2398,-0.2404,-0.2423,-0.2421,-0.2421,-0.2419,-0.2418,-0.2417,0,0,-0.2331,-0.2393,-0.2397,-0.2427,-0.2493,-0.2507,-0.2565,-0.2609,-0.2602,-0.2622,-0.2595,-0.2608,-0.2557,-0.2535,-0.2508,-0.2487,-0.2504,-0.2453,-0.2448,-0.2496,-0.2442,-0.2395,-0.2388,-0.2446,-0.2445,-0.2444,-0.2483,0,-0.2373,-0.2441,-0.2464,-0.2513,-0.2553,-0.2575,-0.2608,-0.2632,-0.2648,-0.2634,-0.261,-0.2577,-0.2578,-0.2537,-0.2523,-0.2493,-0.249,-0.2499,-0.2405,-0.2403,-0.2379,-0.238,-0.2198,-0.2211,-0.248,-0.248,-0.2479,0,-0.2413,-0.2447,-0.2503,-0.2523,-0.2543,-0.2558,-0.2574,-0.2606,-0.2607,-0.2604,-0.2566,-0.2544,-0.252,-0.2505,-0.2473,-0.247,-0.2461,-0.2454,-0.2453,-0.2358,-0.2348,-0.2231,-0.2195,-0.2475,-0.2475,-0.2475,-0.2476,0,-0.2384,-0.2457,-0.2484,-0.2493,-0.2544,-0.2536,-0.2548,-0.2565,-0.2577,-0.2548,-0.255,-0.2501,-0.2488,-0.244,-0.2478,-0.2443,-0.2466,-0.2405,-0.2367,-0.2367,-0.2165,-0.2147,-0.2373,-0.2373,-0.2373,-0.2373,-0.2373,0,-0.2393,-0.2402,-0.2451,-0.2451,-0.2446,-0.2481,-0.2459,-0.2473,-0.248,-0.25,-0.2492,-0.2515,-0.2467,-0.2499,-0.2476,-0.2445,-0.2462,-0.2368,-0.2354,-0.2203,-0.2189,-0.2358,-0.2356,-0.2374,-0.2374,-0.2374,-0.2374,0,-0.2334,-0.2384,-0.2395,-0.2428,-0.2423,-0.2397,-0.2398,-0.2399,-0.2418,-0.2447,-0.2438,-0.2513,-0.2517,-0.2524,-0.2496,-0.246,-0.2421,-0.2418,-0.2288,-0.2254,-0.2348,-0.2351,-0.2301,-0.2299,-0.2297,-0.2296,-0.2295,0,-0.2297,-0.2304,-0.2337,-0.233,-0.2326,-0.23,-0.2297,-0.2331,-0.2366,-0.2474,-0.2508,-0.2541,-0.2521,-0.2493,-0.2438,-0.2358,-0.2425,-0.2181,-0.2049,-0.234,-0.2332,-0.2337,-0.2341,-0.1858,-0.1854,-0.185,-0.1847,0,-0.2202,-0.2217,-0.2227,-0.2231,-0.222,-0.2227,-0.2238,-0.227,-0.2363,-0.2349,-0.2395,-0.2365,-0.2397,-0.2222,-0.2198,-0.2137,-0.2152,-0.2098,-0.2411,-0.1904,-0.1924,-0.1917,-0.1935,-0.1814,-0.1817,-0.182,-0.1821,-0.1823,-0.2091,-0.2085,-0.2109,-0.2101,-0.211,-0.2141,-0.2115,-0.2141,-0.2119,-0.2121,-0.2242,-0.212,-0.2142,-0.1927,-0.1872,-0.1841,-0.1942,-0.1828,-0.1838,-0.1852,-0.1793,-0.1808,-0.167,-0.1672,-0.1675,-0.1676,-0.1678,0,-0.1957,-0.1973,-0.1975,-0.199,-0.1985,-0.201,-0.2069,-0.1967,-0.1866,-0.192,-0.1832,-0.1644,-0.1558,-0.1597,-0.1482,-0.1457,-0.1431,-0.1394,-0.1348,-0.1381,-0.1411,-0.1328,-0.1082,-0.1081,-0.1079,-0.1078,0,0,-0.1883,-0.1861,-0.1893,-0.185,-0.1849,-0.1786,-0.179,-0.158,-0.1536,-0.1354,-0.1313,-0.1455,-0.1521,-0.1292,-0.1249,-0.1144,-0.1246,-0.1092,-0.1567,-0.1543,-0.157,-0.1658,-0.1568,0,0,0,0,0]},{"header":{"parameterUnit":"m.s-1","parameterCategory":2,"la1":30.2991,"la2":30.254,"lo1":-89.0895,"lo2":-89.0444,"dy":0.0017,"dx":0.0017,"nx":28,"ny":28,"refTime":"2024-04-06T21:00:00:Z","depth":"2","parameterNumber":3,"parameterNumberName":"V-component_of_CURRENTS"},"data":[0,0,0,0,0,0,0,0,0,0,0,0,0,0,0,0,0,0,0,0,0,0,0,0,0,0,0,0,0,0,0,0,0,0,0,0,0,0,0,0,0,0,0,0,0,0,0,0,0,0,0,0,0,0,0,0,0,0,-0.0346,-0.0346,0,-0.0332,-0.0331,-0.0331,-0.0233,-0.0231,-0.0229,-0.0227,-0.0079,-0.0077,-0.0075,0,0,0,0,0,0,0,0,0,0,0,0,0,-0.0402,-0.04,-0.0346,-0.0346,-0.0346,-0.0332,-0.0331,-0.0331,-0.0234,-0.0231,-0.0228,-0.0226,-0.008,-0.0077,-0.0075,0,0,0,0,0,0,0,0,0,0,0,0,0,-0.0379,-0.04,-0.0346,-0.0297,-0.0293,-0.0332,-0.0331,-0.0331,-0.0234,-0.0231,-0.0228,-0.0225,-0.008,-0.0078,-0.0075,-0.0124,0,0,-0.0066,-0.0065,0,0,0,0,0,0,0,0,-0.0381,-0.0377,-0.0304,-0.03,-0.0296,-0.0283,-0.0297,-0.0256,-0.0235,-0.0254,-0.0227,-0.0223,-0.0139,-0.0131,-0.0134,-0.0117,-0.011,-0.0066,-0.0064,-0.0063,-0.0062,0,0,0,0,0,0,0,-0.0382,-0.0378,-0.0338,-0.0305,-0.0299,-0.0315,-0.0307,-0.029,-0.0211,-0.0252,-0.0246,-0.0249,-0.0134,-0.0138,-0.013,-0.0108,-0.0066,-0.0064,-0.0062,-0.0061,-0.0113,-0.0116,0,0,0,0,0,0,-0.0385,-0.0379,-0.0338,-0.0338,-0.0333,-0.0316,-0.0307,-0.0288,-0.0214,-0.0201,-0.0251,-0.0244,-0.0144,-0.0133,-0.0124,-0.0117,-0.0063,-0.006,-0.0059,-0.011,-0.0114,-0.0117,0,0,0,0,0,0,-0.0386,-0.0381,-0.0339,-0.0361,-0.0357,-0.0318,-0.0299,-0.029,-0.0288,-0.0215,-0.0198,-0.0257,-0.0141,-0.0128,-0.0128,-0.0113,-0.0059,-0.0057,-0.0106,-0.0111,-0.0115,-0.0142,0,0,0,0,0,0,-0.0388,-0.0381,-0.0378,-0.036,-0.0356,-0.0348,-0.0302,-0.0292,-0.0296,-0.0286,-0.0215,-0.0198,-0.0137,-0.0134,-0.0126,-0.0108,-0.0054,-0.0102,-0.0108,-0.0114,-0.0137,-0.0147,-0.0155,0,0,0,0,0,-0.0389,-0.0427,-0.0377,-0.0373,-0.0348,-0.0349,-0.0347,-0.0309,-0.03,-0.0297,-0.0276,-0.02,-0.0164,-0.0135,-0.0125,-0.0105,-0.01,-0.0107,-0.0113,-0.0133,-0.0145,-0.0155,0,0,0,0,0,0,-0.0478,-0.042,-0.0365,-0.0385,-0.0349,-0.0332,-0.0357,-0.0329,-0.0317,-0.0317,-0.0245,-0.0228,-0.0215,-0.0193,-0.0162,-0.0149,-0.0118,-0.0123,-0.0136,-0.0147,-0.0156,-0.0143,-0.0052,0,0,0,0,0,-0.0487,-0.048,-0.0421,-0.0438,-0.0426,-0.039,-0.0394,-0.0361,-0.0349,-0.034,-0.0294,-0.0268,-0.0245,-0.0221,-0.0198,-0.0202,-0.0157,-0.019,-0.0199,-0.0206,-0.0197,-0.0171,-0.0175,-0.014,-0.014,-0.014,0,0,-0.0532,-0.05,-0.0498,-0.0454,-0.0435,-0.0407,-0.0384,-0.0398,-0.0373,-0.033,-0.0312,-0.0297,-0.026,-0.0248,-0.024,-0.0217,-0.0191,-0.0215,-0.022,-0.0207,-0.0179,-0.0181,-0.0183,-0.0145,-0.0144,-0.0143,0,0,-0.0616,-0.0582,-0.0585,-0.0538,-0.0498,-0.0469,-0.0472,-0.0442,-0.0423,-0.0419,-0.038,-0.0369,-0.034,-0.0295,-0.0274,-0.0335,-0.0244,-0.0336,-0.0351,-0.0327,-0.0327,-0.0327,-0.0247,-0.024,-0.0333,-0.0333,-0.0333,0,-0.0658,-0.0639,-0.0595,-0.0563,-0.0542,-0.0491,-0.048,-0.0456,-0.0428,-0.043,-0.0413,-0.0392,-0.0351,-0.0325,-0.034,-0.0342,-0.0309,-0.0297,-0.0331,-0.0331,-0.033,-0.0248,-0.0239,-0.0335,-0.0335,-0.0334,-0.0334,0,-0.0696,-0.0676,-0.0693,-0.0604,-0.058,-0.0582,-0.0513,-0.0505,-0.0493,-0.046,-0.0456,-0.0424,-0.0406,-0.0393,-0.0376,-0.0362,-0.0331,-0.0343,-0.0285,-0.0334,-0.0246,-0.0236,-0.0338,-0.0337,-0.0336,-0.0336,0,0,-0.0781,-0.0726,-0.0722,-0.0696,-0.0599,-0.0601,-0.0564,-0.053,-0.0528,-0.0491,-0.0486,-0.0454,-0.0448,-0.0429,-0.0405,-0.0376,-0.0331,-0.0365,-0.0363,-0.0251,-0.024,-0.0177,-0.0159,-0.0355,-0.0355,-0.0354,-0.0166,0,-0.0809,-0.0802,-0.0748,-0.0732,-0.072,-0.0647,-0.0625,-0.0584,-0.055,-0.0529,-0.049,-0.0472,-0.0454,-0.0454,-0.0426,-0.0356,-0.0314,-0.0378,-0.024,-0.0234,-0.0144,-0.015,-0.0176,-0.001,-0.0157,-0.0155,-0.0154,0,-0.082,-0.0823,-0.0831,-0.0807,-0.0797,-0.0775,-0.0746,-0.0711,-0.0645,-0.0623,-0.0583,-0.0537,-0.0472,-0.0472,-0.0346,-0.0393,-0.0327,-0.0267,-0.0259,-0.0182,-0.0155,0.0004,0.0014,-0.0137,-0.0139,-0.014,-0.0141,0,-0.0899,-0.0874,-0.0907,-0.0878,-0.0835,-0.0846,-0.0826,-0.076,-0.0741,-0.067,-0.0639,-0.0566,-0.0507,-0.0437,-0.0281,-0.0332,-0.0121,-0.0175,-0.0043,-0.0035,-0.0018,-0.001,-0.0102,-0.0103,-0.0103,-0.0104,-0.0104,0,-0.093,-0.095,-0.0959,-0.0962,-0.1005,-0.0939,-0.0955,-0.0915,-0.0848,-0.0815,-0.0702,-0.064,-0.0504,-0.0355,-0.0266,-0.008,-0.01,-0.0025,0.0011,-0.0028,-0.0024,-0.0121,-0.0125,-0.0096,-0.0098,-0.0099,-0.0101,0,-0.0987,-0.0988,-0.1024,-0.1034,-0.1038,-0.1067,-0.1029,-0.103,-0.0947,-0.0888,-0.0861,-0.0674,-0.0475,-0.0285,-0.0105,-0.003,0.0119,0.0185,0.0172,0.0201,0.0179,0.017,0.0314,0.0317,0.032,0.0323,0.0325,0,-0.1014,-0.1044,-0.1089,-0.112,-0.1128,-0.115,-0.1159,-0.1094,-0.1068,-0.0905,-0.0879,-0.0648,-0.0493,-0.0134,0.007,0.0298,0.0256,0.0389,0.0262,0.0198,0.0219,0.0205,0.0192,0.0293,0.0295,0.0296,0.0297,0,-0.1061,-0.1089,-0.1125,-0.1198,-0.1234,-0.1256,-0.1256,-0.1248,-0.1151,-0.1058,-0.0907,-0.0767,-0.0393,-0.0112,0.0236,0.0335,0.0343,0.0422,0.0373,0.0181,0.019,0.0206,0.0192,0.031,0.0309,0.0308,0.0307,0.0307,-0.1096,-0.1143,-0.1203,-0.1267,-0.1315,-0.1354,-0.1374,-0.132,-0.1258,-0.1093,-0.0956,-0.07,-0.0413,0.0071,0.03,0.051,0.0459,0.0464,0.0454,0.0444,0.0397,0.041,0.0567,0.0567,0.0567,0.0567,0.0567,0,-0.1118,-0.1182,-0.1259,-0.1346,-0.142,-0.1417,-0.1431,-0.1389,-0.1302,-0.1101,-0.0926,-0.0596,-0.0246,0.0058,0.0399,0.0571,0.0516,0.0586,0.0477,0.0465,0.0454,0.0401,0.0575,0.0576,0.0576,0.0577,0,0,-0.1133,-0.1214,-0.1264,-0.141,-0.1477,-0.155,-0.156,-0.1423,-0.1274,-0.1044,-0.0842,-0.0587,-0.023,0.0009,0.0257,0.0436,0.0387,0.0436,0.0411,0.0241,0.0228,0.0369,0.0274,0,0,0,0,0]}],[{"header":{"parameterUnit":"m.s-1","parameterCategory":2,"la1":30.2991,"la2":30.254,"lo1":-89.0895,"lo2":-89.0444,"dy":0.0017,"dx":0.0017,"nx":28,"ny":28,"refTime":"2024-04-06T21:00:00:Z","depth":"4","parameterNumber":2,"parameterNumberName":"U-component_of_CURRENTS"},"data":[0,0,0,0,0,0,0,0,0,0,0,0,0,0,0,0,0,0,0,0,0,0,0,0,0,0,0,0,0,0,0,0,0,0,0,0,0,0,0,0,0,0,0,0,0,0,0,0,0,0,0,0,0,0,0,0,0,0,-0.106,-0.1061,0,-0.1115,-0.1115,-0.1116,-0.1151,-0.1151,-0.1151,-0.1151,-0.1178,-0.1179,-0.1179,0,0,0,0,0,0,0,0,0,0,0,0,0,-0.0987,-0.0988,-0.106,-0.1061,-0.1061,-0.1115,-0.1115,-0.1116,-0.1151,-0.1151,-0.1151,-0.1151,-0.1178,-0.1179,-0.1179,0,0,0,0,0,0,0,0,0,0,0,0,0,-0.1028,-0.0988,-0.106,-0.1085,-0.1088,-0.1114,-0.1115,-0.1116,-0.1151,-0.1151,-0.1151,-0.1151,-0.1178,-0.1179,-0.118,-0.1178,0,0,-0.1182,-0.1182,0,0,0,0,0,0,0,0,-0.1025,-0.103,-0.1081,-0.1083,-0.1086,-0.1126,-0.11,-0.1136,-0.115,-0.1127,-0.1151,-0.1152,-0.1158,-0.1161,-0.1171,-0.1179,-0.1181,-0.1182,-0.1182,-0.1183,-0.1183,0,0,0,0,0,0,0,-0.1022,-0.1028,-0.1082,-0.1081,-0.1085,-0.1094,-0.11,-0.1107,-0.1139,-0.1129,-0.1131,-0.1138,-0.116,-0.117,-0.1171,-0.1181,-0.1182,-0.1183,-0.1183,-0.1183,-0.1262,-0.1263,0,0,0,0,0,0,-0.1016,-0.1026,-0.108,-0.1083,-0.1056,-0.1095,-0.1102,-0.1113,-0.114,-0.1145,-0.1137,-0.1139,-0.1168,-0.117,-0.1172,-0.1233,-0.1183,-0.1184,-0.1184,-0.126,-0.1262,-0.1264,0,0,0,0,0,0,-0.1014,-0.102,-0.1078,-0.1055,-0.1063,-0.1096,-0.1108,-0.1114,-0.1152,-0.1147,-0.1151,-0.1173,-0.1169,-0.1171,-0.1205,-0.1232,-0.1184,-0.1185,-0.1258,-0.1261,-0.1263,-0.1316,0,0,0,0,0,0,-0.1012,-0.1019,-0.1038,-0.1055,-0.1064,-0.1115,-0.1108,-0.1115,-0.1154,-0.1157,-0.1178,-0.1179,-0.1169,-0.1204,-0.1206,-0.1233,-0.1185,-0.1256,-0.126,-0.1262,-0.1312,-0.132,-0.1327,0,0,0,0,0,-0.1009,-0.103,-0.1038,-0.1046,-0.1085,-0.1117,-0.1123,-0.1146,-0.1155,-0.1181,-0.1194,-0.118,-0.1224,-0.1206,-0.1208,-0.1235,-0.1255,-0.1259,-0.1262,-0.1309,-0.1319,-0.1327,0,0,0,0,0,0,-0.1011,-0.1036,-0.1045,-0.1074,-0.1104,-0.1123,-0.1149,-0.1165,-0.1197,-0.1206,-0.1199,-0.1202,-0.1235,-0.1235,-0.1215,-0.1268,-0.1238,-0.1242,-0.1273,-0.1282,-0.1289,-0.1276,-0.1186,0,0,0,0,0,-0.1019,-0.1036,-0.1066,-0.1089,-0.1108,-0.1135,-0.1156,-0.1175,-0.1198,-0.1214,-0.1226,-0.124,-0.1248,-0.1266,-0.1269,-0.1305,-0.1292,-0.1326,-0.1333,-0.1339,-0.1331,-0.1334,-0.134,-0.1276,-0.1276,-0.1276,0,0,-0.1026,-0.1039,-0.1052,-0.109,-0.1114,-0.1152,-0.1149,-0.1192,-0.1225,-0.121,-0.1262,-0.1261,-0.1261,-0.1293,-0.131,-0.1302,-0.1357,-0.1344,-0.1349,-0.1337,-0.1338,-0.1344,-0.1349,-0.1278,-0.1278,-0.1278,0,0,-0.1042,-0.1065,-0.1089,-0.1119,-0.1162,-0.118,-0.12,-0.1241,-0.1265,-0.1308,-0.1301,-0.1318,-0.1347,-0.1347,-0.1349,-0.14,-0.1385,-0.1416,-0.1453,-0.1456,-0.1461,-0.1465,-0.1478,-0.1482,-0.1431,-0.1431,-0.1431,0,-0.1052,-0.1085,-0.1103,-0.114,-0.1169,-0.1198,-0.1242,-0.127,-0.1316,-0.1335,-0.1334,-0.1366,-0.1364,-0.1391,-0.1409,-0.1414,-0.142,-0.1418,-0.1464,-0.1467,-0.147,-0.1482,-0.1486,-0.1434,-0.1434,-0.1433,-0.1433,0,-0.1089,-0.1124,-0.1144,-0.1194,-0.1231,-0.1273,-0.1314,-0.1355,-0.1381,-0.1399,-0.1435,-0.1431,-0.1449,-0.1457,-0.1448,-0.1479,-0.148,-0.1462,-0.1437,-0.1479,-0.149,-0.1494,-0.1438,-0.1437,-0.1436,-0.1436,0,0,-0.1076,-0.1155,-0.1162,-0.1195,-0.1266,-0.1294,-0.1357,-0.1409,-0.1444,-0.1477,-0.1514,-0.1521,-0.1519,-0.152,-0.1517,-0.1522,-0.1552,-0.1512,-0.1511,-0.1516,-0.1577,-0.1496,-0.1492,-0.1549,-0.155,-0.155,-0.1584,0,-0.1099,-0.1165,-0.1205,-0.1273,-0.1312,-0.1364,-0.1413,-0.1464,-0.15,-0.1543,-0.1543,-0.1567,-0.1546,-0.1557,-0.1562,-0.1545,-0.1561,-0.1545,-0.1542,-0.1542,-0.1456,-0.1492,-0.1551,-0.1586,-0.1587,-0.1587,-0.1587,0,-0.1117,-0.1156,-0.1228,-0.1304,-0.1329,-0.1378,-0.1455,-0.1502,-0.1564,-0.1591,-0.162,-0.1625,-0.1641,-0.1612,-0.1613,-0.161,-0.1601,-0.1586,-0.1587,-0.1487,-0.1465,-0.153,-0.1593,-0.1593,-0.1592,-0.1592,-0.1591,0,-0.1074,-0.1167,-0.1219,-0.125,-0.1346,-0.1391,-0.1441,-0.1515,-0.155,-0.1619,-0.1649,-0.1673,-0.1683,-0.1672,-0.1641,-0.164,-0.1633,-0.1625,-0.1548,-0.1544,-0.1582,-0.1577,-0.1628,-0.1628,-0.1628,-0.1628,-0.1628,0,-0.1062,-0.1102,-0.1206,-0.1231,-0.1292,-0.1371,-0.1437,-0.1489,-0.1565,-0.159,-0.1663,-0.1672,-0.1697,-0.1696,-0.1667,-0.1609,-0.1655,-0.1552,-0.1541,-0.1609,-0.1606,-0.1586,-0.158,-0.1629,-0.1629,-0.1629,-0.1628,0,-0.1,-0.1069,-0.1127,-0.1236,-0.127,-0.1309,-0.142,-0.1456,-0.1545,-0.1583,-0.1604,-0.168,-0.1685,-0.17,-0.1684,-0.163,-0.1586,-0.1558,-0.164,-0.1633,-0.1499,-0.1496,-0.1489,-0.1486,-0.1484,-0.1482,-0.148,0,-0.0975,-0.0999,-0.1109,-0.1135,-0.1187,-0.1265,-0.1309,-0.142,-0.1452,-0.1553,-0.1548,-0.1614,-0.1646,-0.157,-0.1597,-0.157,-0.1546,-0.1526,-0.1501,-0.1491,-0.1483,-0.1483,-0.1484,-0.1476,-0.1476,-0.1475,-0.1475,0,-0.0914,-0.0959,-0.1002,-0.1053,-0.1106,-0.1162,-0.1233,-0.1251,-0.1357,-0.1461,-0.1457,-0.1474,-0.1499,-0.1503,-0.1505,-0.1471,-0.1535,-0.1501,-0.1506,-0.1483,-0.1476,-0.147,-0.1473,-0.1467,-0.1468,-0.1469,-0.1469,0,-0.0863,-0.0869,-0.0919,-0.0956,-0.1007,-0.1021,-0.1091,-0.1134,-0.1184,-0.1309,-0.1295,-0.1376,-0.146,-0.1451,-0.1428,-0.1417,-0.1406,-0.1351,-0.1363,-0.1372,-0.1319,-0.1293,-0.1215,0,0,0,0,0,-0.0807,-0.0794,-0.0816,-0.084,-0.0884,-0.0913,-0.1011,-0.1086,-0.1201,-0.1163,-0.123,-0.1245,-0.1264,-0.1309,-0.1277,-0.1385,-0.1406,-0.1341,-0.1348,-0.1422,-0.1432,-0.1379,0,0,0,0,0,0,-0.0763,-0.0772,-0.0775,-0.0726,-0.0721,-0.0756,-0.0815,-0.0904,-0.0906,-0.1032,-0.1055,-0.1157,-0.12,-0.1254,-0.1241,-0.1257,-0.1235,-0.1405,-0.1402,-0.1417,-0.1426,-0.1433,-0.1382,0,0,0,0,0]},{"header":{"parameterUnit":"m.s-1","parameterCategory":2,"la1":30.2991,"la2":30.254,"lo1":-89.0895,"lo2":-89.0444,"dy":0.0017,"dx":0.0017,"nx":28,"ny":28,"refTime":"2024-04-06T21:00:00:Z","depth":"4","parameterNumber":3,"parameterNumberName":"V-component_of_CURRENTS"},"data":[0,0,0,0,0,0,0,0,0,0,0,0,0,0,0,0,0,0,0,0,0,0,0,0,0,0,0,0,0,0,0,0,0,0,0,0,0,0,0,0,0,0,0,0,0,0,0,0,0,0,0,0,0,0,0,0,0,0,-0.0098,-0.0098,0,-0.0057,-0.0057,-0.0057,-0.0042,-0.0042,-0.0042,-0.0042,0.0005,0.0006,0.0008,0,0,0,0,0,0,0,0,0,0,0,0,0,-0.0109,-0.0109,-0.0098,-0.0098,-0.0097,-0.0058,-0.0057,-0.0056,-0.0042,-0.0042,-0.0042,-0.0042,0.0004,0.0006,0.0008,0,0,0,0,0,0,0,0,0,0,0,0,0,-0.009,-0.0109,-0.0099,-0.0085,-0.0084,-0.0058,-0.0057,-0.0056,-0.0041,-0.0042,-0.0042,-0.0042,0.0004,0.0006,0.0008,0.0025,0,0,0.0014,0.0015,0,0,0,0,0,0,0,0,-0.0091,-0.009,-0.0088,-0.0086,-0.0084,-0.0055,-0.0043,-0.0029,-0.0041,-0.0057,-0.0042,-0.0042,-0.0014,-0.0011,-0.0003,0.0027,0.0029,0.0014,0.0016,0.0017,0.0017,0,0,0,0,0,0,0,-0.0093,-0.0091,-0.0082,-0.0087,-0.0085,-0.0062,-0.006,-0.004,-0.0035,-0.0056,-0.0055,-0.005,-0.0013,-0.0005,-0.0002,0.003,0.0014,0.0016,0.0017,0.0018,0.0084,0.0085,0,0,0,0,0,0,-0.01,-0.0093,-0.0084,-0.0081,-0.0088,-0.0062,-0.006,-0.0064,-0.0035,-0.0031,-0.005,-0.005,-0.0008,-0.0004,0.0,0.0031,0.0017,0.0018,0.002,0.0084,0.0084,0.0085,0,0,0,0,0,0,-0.0101,-0.01,-0.0085,-0.0085,-0.0082,-0.0062,-0.0067,-0.0063,-0.0055,-0.0031,-0.0027,-0.0045,-0.0008,-0.0003,0.0017,0.0033,0.0019,0.0021,0.0083,0.0084,0.0085,0.0088,0,0,0,0,0,0,-0.0102,-0.0101,-0.0107,-0.0086,-0.0082,-0.0067,-0.0066,-0.0062,-0.0051,-0.0051,-0.0025,-0.0021,-0.0008,0.0014,0.0019,0.0036,0.0023,0.0083,0.0084,0.0085,0.0087,0.0089,0.009,0,0,0,0,0,-0.0102,-0.0106,-0.0108,-0.0107,-0.0092,-0.0066,-0.0062,-0.0048,-0.0051,-0.0043,-0.0031,-0.0022,0.0024,0.0016,0.0022,0.0039,0.0082,0.0083,0.0084,0.0087,0.0088,0.009,0,0,0,0,0,0,-0.011,-0.0104,-0.0106,-0.0108,-0.0089,-0.0064,-0.0056,-0.0049,-0.0033,-0.0035,-0.0017,-0.0012,0.0012,0.0024,0.0014,0.0061,0.0056,0.0058,0.0055,0.0057,0.0058,0.0043,0.0025,0,0,0,0,0,-0.0117,-0.0121,-0.0105,-0.0105,-0.0098,-0.0079,-0.0069,-0.0058,-0.0041,-0.0034,-0.0016,0.0003,0.0022,0.0036,0.0054,0.0081,0.0088,0.0096,0.0098,0.0099,0.0091,0.0119,0.0122,0.0089,0.0089,0.0089,0,0,-0.0116,-0.0116,-0.0117,-0.0107,-0.0094,-0.0085,-0.0073,-0.0056,-0.0048,-0.0031,-0.0014,0.0007,0.0028,0.0056,0.0068,0.0069,0.0113,0.0101,0.0101,0.0092,0.0121,0.0124,0.0127,0.009,0.009,0.0089,0,0,-0.012,-0.0121,-0.0127,-0.0116,-0.01,-0.0085,-0.0082,-0.0056,-0.0045,-0.0023,-0.0011,0.0018,0.0048,0.0071,0.0085,0.0106,0.0116,0.0114,0.0115,0.0143,0.0146,0.0148,0.0164,0.0168,0.012,0.012,0.012,0,-0.012,-0.0137,-0.012,-0.0123,-0.0122,-0.0089,-0.0093,-0.0068,-0.0037,-0.0032,-0.0019,0.0028,0.0056,0.0084,0.0096,0.011,0.0118,0.0107,0.0145,0.0147,0.015,0.0165,0.0169,0.012,0.012,0.012,0.012,0,-0.013,-0.0144,-0.0143,-0.0144,-0.0132,-0.0127,-0.0098,-0.008,-0.0062,-0.004,-0.0008,0.0036,0.0059,0.0085,0.0099,0.0133,0.0131,0.0139,0.0138,0.0153,0.0168,0.0173,0.012,0.012,0.012,0.012,0,0,-0.0135,-0.0151,-0.0153,-0.0176,-0.0151,-0.0149,-0.0125,-0.0107,-0.0109,-0.005,-0.0049,0.002,0.0044,0.006,0.0094,0.0133,0.0171,0.0144,0.0145,0.0155,0.0222,0.0187,0.0188,0.0185,0.0186,0.0186,0.0226,0,-0.0154,-0.0186,-0.0179,-0.0204,-0.0222,-0.0193,-0.0183,-0.0156,-0.0126,-0.0108,-0.0041,-0.0023,0.0035,0.0043,0.0097,0.0141,0.0182,0.0159,0.0209,0.021,0.0174,0.0192,0.0189,0.0229,0.023,0.0231,0.0231,0,-0.0173,-0.0199,-0.0235,-0.0271,-0.0275,-0.0275,-0.0275,-0.026,-0.0211,-0.019,-0.0138,-0.0094,-0.0025,0.0016,0.0123,0.0103,0.0161,0.0208,0.0211,0.0176,0.0182,0.0211,0.0239,0.0238,0.0238,0.0237,0.0237,0,-0.0208,-0.0244,-0.0286,-0.0293,-0.0309,-0.0322,-0.0322,-0.0287,-0.0291,-0.0244,-0.0245,-0.0149,-0.0122,-0.0019,0.0086,0.0103,0.0188,0.0223,0.025,0.0248,0.0266,0.0263,0.0296,0.0296,0.0296,0.0296,0.0296,0,-0.024,-0.0275,-0.0313,-0.0335,-0.0389,-0.0376,-0.0413,-0.0393,-0.0376,-0.0388,-0.0294,-0.0286,-0.0131,-0.0061,0.0055,0.0153,0.0167,0.0246,0.0256,0.0267,0.0263,0.0269,0.0265,0.0297,0.0297,0.0297,0.0296,0,-0.0268,-0.0289,-0.0349,-0.0391,-0.0409,-0.0446,-0.0484,-0.0506,-0.0479,-0.0493,-0.0484,-0.0395,-0.0292,-0.0149,0.0001,0.0088,0.0198,0.0227,0.0205,0.0215,0.0252,0.0248,0.0277,0.0276,0.0275,0.0274,0.0274,0,-0.0286,-0.0318,-0.0395,-0.0441,-0.0464,-0.0519,-0.0554,-0.0553,-0.0572,-0.056,-0.0569,-0.0488,-0.0409,-0.0228,-0.0069,0.0132,0.0166,0.0211,0.0267,0.0242,0.0251,0.0248,0.0245,0.0273,0.0273,0.0272,0.0272,0,-0.0321,-0.0348,-0.0398,-0.0488,-0.0548,-0.062,-0.0666,-0.069,-0.0686,-0.0676,-0.0638,-0.0532,-0.0428,-0.0245,-0.011,0.0043,0.018,0.0204,0.0208,0.0262,0.0238,0.0246,0.0244,0.0269,0.027,0.027,0.027,0,-0.0345,-0.039,-0.0453,-0.0531,-0.0616,-0.0689,-0.0716,-0.0737,-0.075,-0.0717,-0.0713,-0.0578,-0.0496,-0.0295,-0.0166,-0.0027,0.0037,0.0091,0.0102,0.0107,0.0052,-0.0003,-0.0041,0,0,0,0,0,-0.0364,-0.041,-0.049,-0.0579,-0.0665,-0.0709,-0.0775,-0.0788,-0.0789,-0.0769,-0.0734,-0.0627,-0.0427,-0.0341,-0.0203,-0.0164,0.0058,-0.0,0.0125,0.0255,0.0258,0.022,0,0,0,0,0,0,-0.0379,-0.0446,-0.0488,-0.0599,-0.0663,-0.0754,-0.0799,-0.0806,-0.0782,-0.0761,-0.0649,-0.0595,-0.0391,-0.0494,-0.0197,-0.0157,-0.0062,0.0098,0.0101,0.0253,0.0256,0.0258,0.0221,0,0,0,0,0]}]]